Printer-friendly version

IAU Minor Planet Center

Minor Planet Center

MPEC 2006-E40 : 2006 EJ53

The following Minor Planet Electronic Circular may be linked-to from your own Web pages, but must not otherwise be redistributed electronically.


Read MPEC 2006-E39 Read MPEC 2006-E41


M.P.E.C. 2006-E40                                Issued 2006 Mar. 10, 16:12 UT

     The Minor Planet Electronic Circulars contain information on unusual
         minor planets and routine data on comets.  They are published
   on behalf of Commission 20 of the International Astronomical Union by the
          Minor Planet Center, Smithsonian Astrophysical Observatory,
                          Cambridge, MA 02138, U.S.A.

                  Supported in part by the Brinson Foundation
                  Supported in part by the TABASGO Foundation
             Prepared using the Tamkin Foundation Computer Network

                              MPC@CFA.HARVARD.EDU
          URL http://cfa-www.harvard.edu/iau/mpc.html  ISSN 1523-6714

                                   2006 EJ53

Observations:
     K06E53J* C2006 03 06.37154 11 07 09.01 +06 55 54.7          20.9 V EE040G96
     K06E53J  C2006 03 06.37574 11 07 08.25 +06 55 38.3          20.5 V EE040G96
     K06E53J  C2006 03 06.37996 11 07 07.46 +06 55 21.1          19.8 V EE040G96
     K06E53J  C2006 03 06.38409 11 07 06.74 +06 55 05.3          20.8 V EE040G96
     K06E53J  C2006 03 06.41957 11 07 00.22 +06 52 43.7          19.1 V EE040G96
     K06E53J  C2006 03 06.42236 11 06 59.77 +06 52 33.9          20.0 V EE040G96
     K06E53J  C2006 03 06.42512 11 06 59.28 +06 52 22.7          20.0 V EE040G96
     K06E53J  C2006 03 06.42787 11 06 58.75 +06 52 11.7          20.5 V EE040G96
     K06E53J  C2006 03 09.21665 10 58 47.46 +03 42 51.3          20.8 V EE040G96
     K06E53J  C2006 03 09.22112 10 58 46.59 +03 42 32.2          21.3 V EE040G96
     K06E53J  C2006 03 09.22542 10 58 45.80 +03 42 14.4          21.5 V EE040G96
     K06E53J  C2006 03 09.22981 10 58 44.94 +03 41 54.9          22.2 V EE040G96
     K06E53J  C2006 03 10.01582 10 56 22.13 +02 46 41.1                 EE040J95
     K06E53J  C2006 03 10.03308 10 56 19.00 +02 45 26.6                 EE040J95
     K06E53J  C2006 03 10.04524 10 56 16.63 +02 44 35.2          20.4 R EE040J95

Observer details:
G96 Mt. Lemmon Survey.  Observers R. E. Hill, R. A. Kowalski.  Measurers
    E. C. Beshore, E. J. Christensen, G. J. Garradd, A. R. Gibbs, A. D. Grauer,
    R. E. Hill, R. A. Kowalski, S. M. Larson, R. H. McNaught.  1.5-m reflector
    + CCD.
J95 Great Shefford.  Observer P. Birtwhistle.  0.40-m f/6.0 Schmidt-Cassegrain
    + CCD.

Orbital elements:
2006 EJ53                                                Earth MOID = 0.2937 AU
Epoch 2006 Mar. 6.0 TT = JDT 2453800.5                  MPC
M 348.31682              (2000.0)            P               Q
n   0.28976340     Peri.  212.12935     -0.93839439     +0.33098265
a   2.2617279      Node   346.09755     -0.15714281     -0.66471923
e   0.4480481      Incl.   24.41927     -0.30776955     -0.66977521
P   3.40           H   22.3           G   0.15
From 15 observations 2006 Mar. 6-10.

Ephemeris:
2006 EJ53                a,e,i = 2.26, 0.45, 24                  q = 1.2484
Date    TT    R. A. (2000) Decl.     Delta      r     Elong.  Phase     V
2006 03 06    11 08.23   +07 20.5    0.322    1.314   178.3     1.2    20.6
2006 03 11    10 53.39   +01 37.1    0.309    1.300   172.0     6.1    20.8
2006 03 16    10 38.07   -04 27.9    0.302    1.286   162.7    13.3    21.0
2006 03 21    10 23.08   -10 32.8    0.304    1.275   153.6    20.3    21.2
2006 03 26    10 09.20   -16 16.8    0.312    1.266   145.1    26.8    21.5
2006 03 31    09 57.05   -21 26.2    0.326    1.258   137.5    32.5    21.7
2006 04 05    09 47.09   -25 55.8    0.344    1.253   130.9    37.1    22.0
2006 04 10    09 39.51   -29 47.2    0.366    1.250   125.4    40.8    22.2
2006 04 15    09 34.31   -33 04.8    0.390    1.248   120.8    43.7    22.4

Brian G. Marsden             (C) Copyright 2006 MPC           M.P.E.C. 2006-E40

Read MPEC 2006-E39 Read MPEC 2006-E41


Our Web policy. Index to the CBAT/MPC/ICQ pages.


Valid HTML 4.01!